星链-31642 (STARLINK-31642 )

导读 | 星芒AI

STARLINK-31642 是由 SpaceX 开发的星链(Starlink)卫星网络中的一颗低轨通信卫星。该卫星属于星链计划的第三批部署任务,旨在为全球用户提供高速互联网服务。它运行在约 550 公里的近地轨道上,采用先进的推进系统和激光通信技术,以提高网络稳定性和数据传输效率。STARLINK-31642 的发射和运行有助于扩展星链的覆盖范围,特别是在偏远和网络基础设施薄弱的地区。

基本信息
目录编号:
59726
目录名称:
STARLINK-31642
国际标识:
2024-088U
轨道中心:
EARTH
卫星名称:
星链-31642
卫星全名:
星链-31642 (STARLINK-31642 )
卫星状态:
在轨 (已飞行540 天)
发射日期:
2024-05-10 UTC
国别 :
美国 (US)
星等 :
--
轨道信息
数据来源 国际轨道数据
星历时间: 2025-10-31T20:45:24+0800
1天前
查看轨道信息
半长轴: 6853.463km
偏心率: 0.000129
轨道倾角: 53.161°
近地点辐角 81.922°
升交点赤经 20.107°
平近点角 278.192°
近地点: 474.443km
远地点: 476.213km
周期: 94.108分钟
每日圈数: 15.30163
详细信息
固有亮度:
5
最大亮度:
1.5
卫星平台:
Starlink v2.0 mini
覆盖范围:
全球
运营商:
太空探索技术公司
运营商所在国:
美国
制造商(研发单位):
太空探索技术公司
制造商所在国:
美国
使用方式:
暂无
卫星简介
星链(Starlink)计划是由太空探索技术公司(SpaceX)提出的一个巨型低轨卫星互联网星座项目,计划在2019年至2024年间在太空搭建由约1.2万颗卫星组成的“星链”网络,其中1584颗将部署在地球上空550千米处的近地轨道,并从2020年开始工作。该卫星仍在工作。
2D轨道图
3D轨道图
轨道高度分析图
轨道倾角分析图
轨道综合分析图
查看轨道综合分析图